Location: Cherry Springs State Park
(41.6616°N, 77.8240°W)
Time: 03:18:21
(UTC-04:00)

Daily predictions for brighter satellites

Satellite Brightness Start Highest point End
(mag) Time Altitude Azimuth Time Altitude Azimuth Time Altitude Azimuth
Cosmos 2369 Rocket 4.4 03:47:10 20° NE 03:47:10 20° NE 03:48:53 10° NE
USA 215 4.3 04:06:28 10° NE 04:10:48 37° N 04:10:48 37° N
USA 229 DEB 4.2 04:25:37 52° SE 04:25:58 52° ESE 04:32:37 10° NE
USA 229 4.2 04:25:41 51° SE 04:26:04 51° ESE 04:32:41 10° NE
CENTAUR R/B 4.5 04:37:25 18° NNW 04:37:25 18° NNW 04:41:43 10° NNE
CZ-3 R/B 4.3 04:29:13 43° WSW 04:37:21 51° SSW 04:49:02 10° SE
BREEZE-M DEB (TANK) 4.2 04:40:07 33° E 04:40:07 33° E 04:45:00 10° ENE
Lacrosse 5 3.8 04:43:15 21° N 04:43:15 21° N 04:45:31 10° NNE
CZ-4C R/B 3.0 04:40:23 45° NNW 04:42:54 76° NE 04:50:54 10° SE
USA 267 3.5 04:36:57 10° SE 04:42:05 56° SSE 04:42:05 56° SSE
Nadezhda 1 Rocket 4.3 04:42:39 42° SSE 04:44:48 66° E 04:51:06 10° NNE
Cosmos 1943 Rocket 2.8 04:47:54 47° NNE 04:47:54 47° NNE 04:51:49 10° NNE
ADEOS II 2.5 04:48:22 10° NNE 04:52:27 55° NNE 04:52:27 55° NNE
Tiangong 2 4.2 05:00:31 15° ESE 05:00:31 15° ESE 05:01:07 10° ESE
Cosmos 2150 Rocket 3.9 05:06:05 86° NE 05:06:05 86° NE 05:11:19 10° NNE
Okean O Rocket 2.2 05:02:23 10° NNE 05:06:43 54° E 05:07:32 47° SE
Cosmos 1898 Rocket 4.3 05:09:50 39° NNW 05:09:50 39° NNW 05:13:21 10° NNE
Cosmos 1937 Rocket 3.5 05:10:36 70° NNW 05:10:36 70° NNW 05:15:29 10° NNE
Cosmos 489 Rocket 4.4 05:14:21 58° WNW 05:14:21 58° WNW 05:20:30 10° NNE
Cosmos 2154 Rocket 4.0 05:10:08 10° N 05:16:31 85° E 05:22:49 10° S
Cosmos 1758 Rocket 3.7 05:18:13 45° SSE 05:19:30 73° E 05:24:00 10° NNE
Cosmos 44 Rocket 3.9 05:20:56 42° S 05:20:56 42° S 05:24:22 10° SSE
Cosmos-2242 4.3 05:17:01 10° N 05:21:05 40° ENE 05:25:09 10° SSE
Cosmos 2369 Rocket 3.5 05:28:59 24° NNW 05:28:59 24° NNW 05:32:23 10° N
Meteor 2-19 Rocket 4.4 05:24:25 10° NNW 05:30:28 58° W 05:36:28 10° S
Cosmos 990 Rocket 4.0 05:32:36 52° WNW 05:32:43 52° WNW 05:37:46 10° N
ERBS 4.2 05:32:06 23° N 05:33:04 26° NE 05:36:02 10° E
Cosmos 1340 Rocket 4.1 05:42:35 27° NNW 05:42:35 27° NNW 05:44:48 10° N
Meteor 1-31 Rocket 3.0 05:37:14 10° NNE 05:41:02 66° E 05:44:48 10° S
Cosmos 2298 Rocket 4.4 05:40:54 41° WNW 05:41:07 41° WNW 05:46:11 10° N
RUBIN 8/PSLV 4.4 05:37:59 10° N 05:42:17 70° WNW 05:44:10 32° SSW
Milstar 3 4.0 05:43:13 20° SW 05:45:56 26° S 05:52:10 10° SE
Cosmos 1707 2.8 05:51:04 49° W 05:51:11 50° W 05:55:01 10° N
Cosmos 962 Rocket 4.3 05:48:42 10° NNW 05:54:49 68° W 06:00:51 10° S
Cosmos 2219 3.3 05:49:20 10° NNW 05:55:02 81° ENE 06:00:40 10° SSE
APEX 3.6 05:57:23 40° W 05:57:54 43° WSW 06:02:15 10° S
SJ-6F 4.4 05:54:19 10° NNE 05:58:25 84° ESE 06:02:28 10° SSW
Meteor 2-5 Rocket 3.7 05:54:38 10° SSW 06:00:33 78° W 06:06:25 10° N
Cosmos 1378 3.6 06:01:44 37° W 06:01:48 38° WNW 06:05:21 10° N
Meteor 2-14 Rocket 4.5 05:56:18 10° N 06:02:25 85° E 06:08:29 10° S
PAYLOAD B 4.4 06:00:12 10° N 06:05:26 46° WNW 06:10:40 10° SW
Cosmos 2341 Rocket 4.1 06:00:28 10° NNW 06:06:42 57° W 06:12:54 10° SSW
Cosmos 2297 Rocket 3.9 06:01:51 10° N 06:06:56 33° ENE 06:11:58 10° ESE
Cosmos 158 Rocket 4.0 06:02:02 10° NNW 06:07:27 81° WSW 06:12:49 10° SSE
GPS 2-04 Rocket1 4.2 06:07:14 19° SW 06:08:04 20° SSW 06:10:51 10° SSE
Cosmos 2181 Rocket 3.9 06:03:47 10° SSW 06:09:59 65° W 06:16:08 10° N
Cosmos 1953 Rocket 4.2 06:09:03 24° WSW 06:10:44 32° WNW 06:14:37 10° NNW
USA 81 4.0 06:07:19 10° S 06:12:35 77° W 06:17:53 10° N
Cosmos 1656 Rocket 4.2 06:09:35 20° WSW 06:12:56 38° WNW 06:18:13 10° N
EO 1 Del DPAF 3.3 06:09:39 10° SSE 06:13:28 83° ENE 06:17:19 10° NNW
SJ 16-02 1.3 06:09:25 10° SSW 06:13:49 87° WNW 06:18:14 10° NNE
NOSS 3-1 (C) 3.4 06:10:26 14° SW 06:15:24 62° NW 06:21:51 10° NNE
OAO 2 Rocket 4.3 06:12:44 20° WSW 06:15:28 33° SSW 06:19:54 10° SE
USA 229 DEB 4.3 06:13:07 20° W 06:17:08 37° NW 06:23:32 10° NNE
USA 229 4.3 06:13:10 20° W 06:17:13 37° NW 06:23:37 10° NNE
In-Cosmos 22 4.3 06:13:40 10° S 06:19:14 82° E 06:24:59 10° NNE
Meteor 1-16 Rocket 4.4 06:14:15 10° NNW 06:19:43 52° W 06:25:20 10° SSW
NOSS 3-1 (A) 3.3 06:15:08 10° SW 06:20:53 77° NW 06:27:24 10° NNE
CZ-4B R/B 4.5 06:19:21 10° N 06:23:34 43° WNW 06:27:49 10° SW
Lacrosse 5 4.0 06:23:00 10° NW 06:25:42 14° N 06:28:25 10° NNE
SKYMED 2 3.6 06:21:24 10° SSE 06:25:45 85° ENE 06:30:06 10° NNW
SL-08 R/B 4.5 06:19:34 10° N 06:25:46 89° W 06:32:01 10° S
Cosmos 1959 Rocket 4.5 06:21:17 10° N 06:27:35 74° W 06:33:47 10° S
MINOTAUR R/B 4.3 06:25:45 10° NNW 06:28:24 75° ENE 06:31:02 10° SSE
CZ-4B R/B 3.8 06:23:46 10° N 06:28:37 34° WNW 06:33:32 10° SW
Landsat 4 4.4 06:25:51 10° SSW 06:29:14 31° W 06:32:37 10° NW
Cosmos 1356 Rocket 4.1 06:26:07 10° SW 06:29:59 33° WNW 06:33:54 10° N
Cosmos 1943 Rocket 3.8 06:29:28 13° WNW 06:30:55 14° NW 06:33:45 10° NNW
CZ-4C R/B 3.9 06:25:41 12° WNW 06:31:06 26° WSW 06:37:22 10° SSW
ADEOS II 3.7 06:30:12 10° NNW 06:32:37 13° WNW 06:33:24 13° WNW
Tiangong 2 2.5 06:32:51 17° WSW 06:34:33 25° SSW 06:37:16 10° SSE
Cosmos 1269 Rocket 4.0 06:30:13 10° NNW 06:35:29 65° WSW 06:40:43 10° S
Cosmos 1356 3.5 06:33:23 10° SSW 06:36:47 51° WNW 06:40:11 10° N
USA 116 4.3 06:34:34 10° SSW 06:37:43 31° W 06:41:14 10° NNW
Meteor 1-28 Rocket 3.9 06:38:20 10° SSW 06:41:46 32° W 06:45:15 10° NNW
Okean O Rocket 3.2 06:40:07 10° NNW 06:42:39 15° WNW 06:44:59 11° W
ATLAS 3B R/B 4.4 06:39:20 10° NNW 06:44:50 25° NE 06:50:08 10° E
IDEFIX/ARIANE 42P 2.8 06:40:32 10° NNE 06:45:48 80° ESE 06:51:01 10° S
Thor Agena Rocket 4.1 06:41:04 10° SSE 06:46:16 64° ENE 06:51:28 10° N
Cosmos 372 Rocket 4.5 06:46:12 10° SW 06:51:04 40° WNW 06:56:00 10° N
Okean-O 3.0 06:52:24 10° N 06:56:33 41° WNW 07:00:42 10° SW
PAYLOAD A 3.8 06:54:13 10° N 06:58:54 69° WNW 07:03:39 10° SSW
Cosmos 2278 3.9 06:53:20 10° SSW 06:58:57 79° ESE 07:04:38 10° NNE
Cosmos 2366 rocket 4.3 06:54:48 10° NNW 07:00:34 44° W 07:06:22 10° SSW
Cosmos 1125 Rocket 4.3 06:56:42 10° WSW 07:01:18 30° WNW 07:05:57 10° N
NOAA 6 4.4 06:57:14 10° N 07:02:07 43° WNW 07:06:57 10° SW
Meteor 1-24 Rocket 4.4 06:59:49 10° SW 07:05:19 37° WNW 07:10:46 10° N
